AFR23KL LFBO-LFLL

Flight info

Callsign AFR23KL
Flight time 0h 46m
Altitude 26000
Route MEN DCT NINUN G53 MEZIN
Aircraft A321/M-SDE3FGHIRWYZ/HB1

Departure

Time 2026-05-05 18:58
Airport Toulouse-Blagnac Airport (LFBO)

Arrival

Time 2026-05-05 19:44
Airport Lyon Saint-Exupéry Airport (LFLL)
Time Latitude Longitude Altitude Speed Heading
2026-05-05 18:42 43.63134 1.37001 494 ft 0 kts 66°
2026-05-05 18:49 43.63134 1.37000 494 ft 2 kts 66°
2026-05-05 18:49 43.63124 1.36968 492 ft 4 kts 66°
2026-05-05 18:49 43.63113 1.36934 487 ft 4 kts 69°
2026-05-05 18:50 43.63106 1.36899 486 ft 4 kts 93°
2026-05-05 18:50 43.63113 1.36870 489 ft 2 kts 136°
2026-05-05 18:50 43.63114 1.36869 487 ft 0 kts 136°
2026-05-05 18:52 43.63112 1.36871 488 ft 2 kts 136°
2026-05-05 18:52 43.63088 1.36904 485 ft 9 kts 136°
2026-05-05 18:53 43.63050 1.36971 488 ft 8 kts 118°
2026-05-05 18:53 43.63017 1.37026 494 ft 7 kts 158°
2026-05-05 18:53 43.62975 1.36999 489 ft 9 kts 227°
2026-05-05 18:53 43.62916 1.36944 484 ft 11 kts 178°
2026-05-05 18:54 43.62851 1.36994 489 ft 11 kts 143°
2026-05-05 18:54 43.62784 1.37064 489 ft 13 kts 143°
2026-05-05 18:54 43.62704 1.37148 490 ft 17 kts 143°
2026-05-05 18:54 43.62593 1.37263 489 ft 23 kts 143°
2026-05-05 18:55 43.62457 1.37401 489 ft 24 kts 144°
2026-05-05 18:55 43.62322 1.37535 488 ft 24 kts 144°
2026-05-05 18:55 43.62192 1.37666 490 ft 23 kts 141°
2026-05-05 18:55 43.62071 1.37799 491 ft 22 kts 142°
2026-05-05 18:56 43.61953 1.37925 489 ft 21 kts 142°
2026-05-05 18:56 43.61839 1.38045 486 ft 20 kts 143°
2026-05-05 18:56 43.61731 1.38157 494 ft 16 kts 144°
2026-05-05 18:56 43.61637 1.38134 489 ft 14 kts 231°
2026-05-05 18:57 43.61619 1.38101 491 ft 4 kts 232°
2026-05-05 18:57 43.61596 1.38057 483 ft 6 kts 238°
2026-05-05 18:57 43.61612 1.37974 486 ft 13 kts 322°
2026-05-05 18:57 43.61766 1.37809 488 ft 60 kts 320°
2026-05-05 18:58 43.62300 1.37252 489 ft 130 kts 323°
2026-05-05 18:58 43.63164 1.36332 549 ft 177 kts 320°
2026-05-05 18:58 43.64133 1.35320 1363 ft 171 kts 320°
2026-05-05 18:58 43.65063 1.34313 2250 ft 167 kts 319°
2026-05-05 18:59 43.65951 1.33343 2912 ft 162 kts 319°
2026-05-05 18:59 43.66833 1.32379 3442 ft 162 kts 320°
2026-05-05 18:59 43.67724 1.31406 3881 ft 169 kts 320°
2026-05-05 18:59 43.68377 1.30750 4003 ft 183 kts 328°
2026-05-05 19:00 43.69655 1.30210 4228 ft 205 kts 357°
2026-05-05 19:00 43.71066 1.30859 4446 ft 231 kts 36°
2026-05-05 19:00 43.72152 1.32679 4686 ft 259 kts 53°
2026-05-05 19:00 43.73194 1.34811 5168 ft 273 kts 54°
2026-05-05 19:01 43.74269 1.37047 5918 ft 278 kts 54°
2026-05-05 19:01 43.75352 1.39288 6653 ft 282 kts 54°
2026-05-05 19:01 43.76456 1.41552 7361 ft 286 kts 54°
2026-05-05 19:01 43.77580 1.43840 8074 ft 290 kts 54°
2026-05-05 19:02 43.78722 1.46159 8767 ft 293 kts 54°
2026-05-05 19:02 43.79883 1.48502 9458 ft 297 kts 54°
2026-05-05 19:02 43.81062 1.50874 10120 ft 302 kts 54°
2026-05-05 19:02 43.82273 1.53305 10680 ft 307 kts 54°
2026-05-05 19:03 43.83486 1.55750 11368 ft 308 kts 54°
2026-05-05 19:03 43.84706 1.58214 12012 ft 312 kts 55°
2026-05-05 19:03 43.85936 1.60703 12635 ft 315 kts 55°
2026-05-05 19:03 43.87179 1.63226 13272 ft 319 kts 56°
2026-05-05 19:04 43.88436 1.65777 13883 ft 323 kts 56°
2026-05-05 19:04 43.89709 1.68362 14431 ft 326 kts 56°
2026-05-05 19:04 43.90998 1.70973 14999 ft 329 kts 56°
2026-05-05 19:04 43.92297 1.73608 15570 ft 332 kts 56°
2026-05-05 19:05 43.93601 1.76265 16135 ft 335 kts 57°
2026-05-05 19:05 43.94888 1.78967 16710 ft 337 kts 58°
2026-05-05 19:05 43.96165 1.81715 17263 ft 340 kts 59°
2026-05-05 19:05 43.97442 1.84495 17831 ft 343 kts 59°
2026-05-05 19:06 43.98726 1.87303 18366 ft 346 kts 59°
2026-05-05 19:06 44.00021 1.90136 18869 ft 349 kts 59°
2026-05-05 19:06 44.01329 1.92987 19367 ft 351 kts 59°
2026-05-05 19:06 44.02648 1.95863 19772 ft 357 kts 60°
2026-05-05 19:07 44.04010 1.98834 19907 ft 372 kts 60°
2026-05-05 19:07 44.05425 2.01921 20027 ft 385 kts 59°
2026-05-05 19:07 44.06889 2.05114 20155 ft 397 kts 60°
2026-05-05 19:07 44.08395 2.08398 20282 ft 408 kts 59°
2026-05-05 19:08 44.09939 2.11769 20414 ft 418 kts 60°
2026-05-05 19:08 44.11509 2.15203 20675 ft 423 kts 60°
2026-05-05 19:08 44.13094 2.18671 21027 ft 426 kts 60°
2026-05-05 19:08 44.14689 2.22159 21430 ft 428 kts 60°
2026-05-05 19:09 44.16287 2.25660 21830 ft 430 kts 60°
2026-05-05 19:09 44.17893 2.29186 22238 ft 432 kts 60°
2026-05-05 19:09 44.19505 2.32729 22638 ft 434 kts 60°
2026-05-05 19:09 44.21124 2.36294 23032 ft 436 kts 60°
2026-05-05 19:10 44.22752 2.39880 23423 ft 439 kts 60°
2026-05-05 19:10 44.24387 2.43487 23758 ft 441 kts 60°
2026-05-05 19:10 44.26030 2.47118 24055 ft 444 kts 60°
2026-05-05 19:10 44.27681 2.50772 24352 ft 447 kts 60°
2026-05-05 19:11 44.29344 2.54460 24630 ft 450 kts 60°
2026-05-05 19:11 44.31011 2.58164 24908 ft 453 kts 60°
2026-05-05 19:11 44.32688 2.61899 25186 ft 455 kts 60°
2026-05-05 19:11 44.34377 2.65664 25465 ft 458 kts 60°
2026-05-05 19:12 44.36075 2.69448 25732 ft 461 kts 60°
2026-05-05 19:12 44.37784 2.73255 25909 ft 463 kts 60°
2026-05-05 19:12 44.39487 2.77054 25946 ft 460 kts 60°
2026-05-05 19:12 44.41205 2.80890 25941 ft 459 kts 60°
2026-05-05 19:13 44.42900 2.84680 25942 ft 459 kts 60°
2026-05-05 19:13 44.44589 2.88466 25939 ft 459 kts 61°
2026-05-05 19:13 44.46281 2.92264 25938 ft 460 kts 61°
2026-05-05 19:13 44.47971 2.96063 25935 ft 460 kts 61°
2026-05-05 19:14 44.49664 2.99869 25930 ft 460 kts 61°
2026-05-05 19:14 44.51365 3.03696 25932 ft 461 kts 61°
2026-05-05 19:14 44.53057 3.07513 25931 ft 461 kts 61°
2026-05-05 19:14 44.54745 3.11335 25926 ft 461 kts 61°
2026-05-05 19:15 44.56427 3.15158 25925 ft 461 kts 61°
2026-05-05 19:15 44.58112 3.18994 25921 ft 461 kts 61°
2026-05-05 19:15 44.59795 3.22823 25920 ft 462 kts 61°
2026-05-05 19:15 44.61485 3.26658 25916 ft 462 kts 61°
2026-05-05 19:16 44.63175 3.30493 25916 ft 462 kts 61°
2026-05-05 19:16 44.64862 3.34321 25909 ft 462 kts 61°
2026-05-05 19:16 44.66551 3.38161 25908 ft 462 kts 61°
2026-05-05 19:16 44.68235 3.42007 25904 ft 462 kts 61°
2026-05-05 19:17 44.69916 3.45862 25905 ft 463 kts 61°
2026-05-05 19:17 44.71594 3.49714 25903 ft 463 kts 61°
2026-05-05 19:17 44.73277 3.53578 25905 ft 463 kts 61°
2026-05-05 19:17 44.74964 3.57443 25904 ft 463 kts 61°
2026-05-05 19:18 44.76648 3.61303 25901 ft 463 kts 61°
2026-05-05 19:18 44.78332 3.65175 25903 ft 463 kts 61°
2026-05-05 19:18 44.80011 3.69042 25899 ft 463 kts 61°
2026-05-05 19:18 44.81687 3.72916 25899 ft 463 kts 61°
2026-05-05 19:19 44.83362 3.76795 25903 ft 463 kts 61°
2026-05-05 19:19 44.85037 3.80677 25906 ft 463 kts 61°
2026-05-05 19:19 44.86710 3.84556 25901 ft 463 kts 61°
2026-05-05 19:19 44.88627 3.88215 25896 ft 466 kts 51°
2026-05-05 19:20 44.90759 3.91651 25901 ft 466 kts 50°
2026-05-05 19:20 44.92899 3.95083 25900 ft 466 kts 50°
2026-05-05 19:20 44.95046 3.98519 25894 ft 466 kts 50°
2026-05-05 19:20 44.97179 4.01937 25646 ft 462 kts 50°
2026-05-05 19:21 44.99320 4.05372 25388 ft 459 kts 50°
2026-05-05 19:21 45.01415 4.08747 25134 ft 455 kts 50°
2026-05-05 19:21 45.03485 4.12091 24582 ft 450 kts 50°
2026-05-05 19:21 45.05535 4.15412 24029 ft 445 kts 50°
2026-05-05 19:22 45.07554 4.18706 23484 ft 440 kts 51°
2026-05-05 19:22 45.09534 4.21973 22908 ft 434 kts 51°
2026-05-05 19:22 45.11473 4.25193 22406 ft 425 kts 51°
2026-05-05 19:22 45.13370 4.28347 21953 ft 416 kts 51°
2026-05-05 19:23 45.15230 4.31434 21468 ft 408 kts 51°
2026-05-05 19:23 45.17059 4.34464 21044 ft 400 kts 51°
2026-05-05 19:23 45.18853 4.37433 20617 ft 394 kts 51°
2026-05-05 19:23 45.20628 4.40374 20200 ft 391 kts 51°
2026-05-05 19:24 45.22394 4.43301 19784 ft 389 kts 51°
2026-05-05 19:24 45.24150 4.46215 19360 ft 386 kts 51°
2026-05-05 19:24 45.25888 4.49105 18941 ft 384 kts 51°
2026-05-05 19:24 45.27622 4.51993 18525 ft 385 kts 51°
2026-05-05 19:25 45.29358 4.54885 18076 ft 384 kts 51°
2026-05-05 19:25 45.31082 4.57767 17616 ft 382 kts 51°
2026-05-05 19:25 45.32796 4.60634 17177 ft 379 kts 51°
2026-05-05 19:25 45.34495 4.63478 16736 ft 376 kts 51°
2026-05-05 19:26 45.36185 4.66307 16298 ft 374 kts 50°
2026-05-05 19:26 45.37859 4.69113 15859 ft 371 kts 51°
2026-05-05 19:26 45.39508 4.71885 15589 ft 361 kts 50°
2026-05-05 19:26 45.41104 4.74564 15461 ft 348 kts 50°
2026-05-05 19:27 45.42634 4.77145 15321 ft 336 kts 51°
2026-05-05 19:27 45.44117 4.79671 15065 ft 330 kts 51°
2026-05-05 19:27 45.45456 4.81965 14773 ft 328 kts 51°
2026-05-05 19:27 45.46926 4.84484 14420 ft 326 kts 51°
2026-05-05 19:28 45.48351 4.86925 14067 ft 324 kts 51°
2026-05-05 19:28 45.49803 4.89411 13688 ft 322 kts 51°
2026-05-05 19:28 45.51231 4.91854 13276 ft 319 kts 51°
2026-05-05 19:28 45.52760 4.94136 12855 ft 317 kts 40°
2026-05-05 19:29 45.54569 4.95902 12435 ft 315 kts 27°
2026-05-05 19:29 45.56628 4.96836 12027 ft 309 kts
2026-05-05 19:29 45.58762 4.96783 11589 ft 306 kts 354°
2026-05-05 19:29 45.60882 4.96539 11183 ft 305 kts 353°
2026-05-05 19:30 45.62989 4.96276 10774 ft 303 kts 353°
2026-05-05 19:30 45.65081 4.96011 10488 ft 297 kts 353°
2026-05-05 19:30 45.67102 4.95755 10362 ft 286 kts 353°
2026-05-05 19:30 45.69040 4.95513 10240 ft 274 kts 353°
2026-05-05 19:31 45.70914 4.95281 10004 ft 268 kts 353°
2026-05-05 19:31 45.72761 4.95053 9721 ft 266 kts 353°
2026-05-05 19:31 45.74596 4.94825 9407 ft 264 kts 353°
2026-05-05 19:31 45.76419 4.94599 9044 ft 262 kts 353°
2026-05-05 19:32 45.77641 4.94448 8800 ft 261 kts 353°
2026-05-05 19:32 45.79445 4.94224 8449 ft 259 kts 353°
2026-05-05 19:32 45.81231 4.94003 8103 ft 257 kts 353°
2026-05-05 19:32 45.83007 4.93782 7773 ft 255 kts 353°
2026-05-05 19:33 45.84769 4.93561 7436 ft 253 kts 353°
2026-05-05 19:33 45.86519 4.93342 7103 ft 252 kts 353°
2026-05-05 19:33 45.88257 4.93124 6775 ft 250 kts 353°
2026-05-05 19:33 45.89982 4.92904 6475 ft 248 kts 353°
2026-05-05 19:34 45.91696 4.92685 6154 ft 246 kts 353°
2026-05-05 19:34 45.93396 4.92469 5825 ft 245 kts 353°
2026-05-05 19:34 45.95090 4.92249 5477 ft 243 kts 353°
2026-05-05 19:35 45.98324 4.91838 5075 ft 225 kts 353°
2026-05-05 19:35 45.99874 4.91639 4743 ft 223 kts 353°
2026-05-05 19:35 46.01412 4.91438 4406 ft 221 kts 353°
2026-05-05 19:35 46.02936 4.91235 4094 ft 219 kts 353°
2026-05-05 19:36 46.04449 4.91065 3795 ft 217 kts 360°
2026-05-05 19:36 46.05866 4.91703 3492 ft 219 kts 37°
2026-05-05 19:36 46.06737 4.93452 3214 ft 218 kts 76°
2026-05-05 19:36 46.06683 4.95583 3056 ft 213 kts 115°
2026-05-05 19:37 46.05762 4.97185 3042 ft 210 kts 148°
2026-05-05 19:37 46.04477 4.98201 3032 ft 212 kts 154°
2026-05-05 19:37 46.03162 4.99162 3023 ft 212 kts 155°
2026-05-05 19:37 46.01840 5.00103 3021 ft 212 kts 155°
2026-05-05 19:38 46.00515 5.01043 3017 ft 212 kts 155°
2026-05-05 19:38 45.99195 5.01983 3018 ft 211 kts 154°
2026-05-05 19:38 45.97900 5.02972 3010 ft 211 kts 153°
2026-05-05 19:38 45.96607 5.03961 3012 ft 210 kts 154°
2026-05-05 19:39 45.95297 5.04945 3014 ft 209 kts 154°
2026-05-05 19:39 45.94030 5.05878 3010 ft 203 kts 155°
2026-05-05 19:39 45.92736 5.06463 3046 ft 190 kts 173°
2026-05-05 19:39 45.91443 5.06736 3045 ft 181 kts 172°
2026-05-05 19:40 45.90247 5.07031 3031 ft 168 kts 173°
2026-05-05 19:40 45.89118 5.07267 3006 ft 161 kts 175°
2026-05-05 19:40 45.88008 5.07404 2996 ft 159 kts 177°
2026-05-05 19:40 45.86911 5.07521 3011 ft 157 kts 177°
2026-05-05 19:41 45.85816 5.07678 3024 ft 161 kts 176°
2026-05-05 19:41 45.84685 5.07810 3041 ft 164 kts 178°
2026-05-05 19:41 45.83543 5.07928 2857 ft 165 kts 178°
2026-05-05 19:41 45.82408 5.08093 2616 ft 163 kts 176°
2026-05-05 19:42 45.81306 5.08234 2386 ft 153 kts 178°
2026-05-05 19:42 45.80271 5.08329 2166 ft 146 kts 178°
2026-05-05 19:42 45.79237 5.08467 2000 ft 156 kts 176°
2026-05-05 19:42 45.78191 5.08612 1737 ft 147 kts 176°
2026-05-05 19:43 45.77186 5.08728 1566 ft 144 kts 175°
2026-05-05 19:43 45.76189 5.08843 1365 ft 143 kts 174°
2026-05-05 19:43 45.75203 5.08975 1177 ft 142 kts 175°
2026-05-05 19:43 45.74225 5.09100 988 ft 140 kts 175°
2026-05-05 19:44 45.73258 5.09218 807 ft 138 kts 175°
2026-05-05 19:44 45.72448 5.09317 812 ft 79 kts 175°
2026-05-05 19:44 45.72039 5.09366 819 ft 48 kts 175°
2026-05-05 19:44 45.71804 5.09352 819 ft 26 kts 198°
2026-05-05 19:45 45.71681 5.09280 821 ft 11 kts 204°
2026-05-05 19:45 45.71638 5.09193 810 ft 12 kts 264°
2026-05-05 19:45 45.71632 5.09101 814 ft 9 kts 264°
2026-05-05 19:45 45.71623 5.08968 812 ft 16 kts 264°
2026-05-05 19:46 45.71615 5.08847 813 ft 8 kts 264°
2026-05-05 19:46 45.71609 5.08764 810 ft 11 kts 264°
2026-05-05 19:46 45.71600 5.08641 806 ft 12 kts 264°
2026-05-05 19:46 45.71597 5.08534 803 ft 10 kts 286°
2026-05-05 19:47 45.71654 5.08494 802 ft 9 kts 347°
2026-05-05 19:47 45.71685 5.08429 801 ft 9 kts 270°
2026-05-05 19:47 45.71678 5.08332 800 ft 9 kts 264°
2026-05-05 19:47 45.71676 5.08252 801 ft 7 kts 278°
2026-05-05 19:48 45.71687 5.08188 800 ft 6 kts 283°
2026-05-05 19:48 45.71706 5.08127 799 ft 8 kts 314°
2026-05-05 19:48 45.71756 5.08129 797 ft 7 kts 28°
2026-05-05 19:48 45.71776 5.08144 797 ft 0 kts 28°
2026-05-05 19:49 45.71782 5.08149 797 ft 4 kts 28°
2026-05-05 19:49 45.71797 5.08159 797 ft 3 kts 21°
2026-05-05 19:49 45.71826 5.08150 797 ft 4 kts 330°
2026-05-05 19:49 45.71845 5.08122 796 ft 4 kts 308°
2026-05-05 19:50 45.71860 5.08095 796 ft 3 kts 309°
2026-05-05 19:50 45.71865 5.08086 796 ft 0 kts 309°